Wind from 280 at 4 knots

Air temperature 10.0° C
Visibility: greater than 5.4 NM
Dewpoint 2.0° C

Last reported at 2014-Apr-18 16:20 UTC.
Time now 2014-Apr-18 18:17 UTC

Location: N 62°10' E 027°52'.
View on Google Maps.

See reports from other nearby stations

Tides Stations Pressure Air Temp Water Temp Dewpoint Dewpoint depression Visibility Wind Speed Wind Dir Waves Ship positions

  
sailing weather and tide predictions

VARKAUS weather

date/time (UTC)wind fromknots sea level pressurealtimeterstation pressurevisibilityair tempwater tempwave heightnotes
2014-Apr-18 17:20 290 2 10.0
2014-Apr-18 16:50 280 1 5.410.0 Light rain showers.
2014-Apr-18 16:20 280 4 5.410.0
2014-Apr-18 15:50 300 4 5.410.0
2014-Apr-18 15:20 290 7 5.411.0
2014-Apr-18 14:50 290 7 11.0
2014-Apr-18 14:20 290 10 11.0
2014-Apr-18 13:50 270 9 5.412.0
2014-Apr-18 13:20 240 7 12.0
2014-Apr-18 12:50 250 8 12.0
2014-Apr-18 12:20 230 9 12.0
2014-Apr-18 11:50 220 11 12.0
2014-Apr-18 11:20 240 7 12.0
2014-Apr-18 10:50 230 9 12.0
2014-Apr-18 10:20 220 9 5.412.0
2014-Apr-18 09:50 220 8 5.411.0
2014-Apr-18 09:20 210 9 11.0
2014-Apr-18 08:50 210 9 11.0
2014-Apr-18 08:20 220 8 10.0
2014-Apr-18 07:50 220 7 9.0
2014-Apr-18 07:20 210 10 9.0
2014-Apr-18 06:50 220 9 8.0
2014-Apr-18 06:20 220 8 8.0
2014-Apr-18 05:50 210 6 7.0
2014-Apr-18 05:20 210 7 6.0
2014-Apr-18 04:50 200 6 6.0
2014-Apr-18 04:20 190 7 6.0
2014-Apr-18 03:50 200 6 5.0
2014-Apr-18 03:20 200 7 6.0
2014-Apr-18 02:50 190 7 5.0
2014-Apr-18 02:20 180 5 6.0
2014-Apr-18 01:50 180 6 6.0
2014-Apr-18 01:20 180 6 6.0
2014-Apr-18 00:50 190 7 6.0
2014-Apr-18 00:20 200 6 6.0
2014-Apr-17 23:50 200 7 6.0
2014-Apr-17 23:20 200 7 6.0
2014-Apr-17 22:50 200 6 6.0
2014-Apr-17 22:20 200 7 6.0
2014-Apr-17 21:50 210 8 6.0
2014-Apr-17 21:20 200 9 7.0
2014-Apr-17 20:50 200 6 7.0
2014-Apr-17 20:20 200 7 7.0
2014-Apr-17 19:50 200 7 7.0
2014-Apr-17 19:20 200 9 8.0
2014-Apr-17 18:50 200 8 8.0
2014-Apr-17 18:20 200 9 8.0
2014-Apr-17 17:50 190 8 9.0
2014-Apr-17 16:20 200 8 10.0
2014-Apr-17 15:20 200 9 11.0
2014-Apr-17 14:50 200 8 5.411.0
2014-Apr-17 14:20 200 7 5.411.0
2014-Apr-17 13:50 210 10 5.411.0
2014-Apr-17 13:20 210 9 10.0
2014-Apr-17 12:50 210 10 gusting 20 10.0
2014-Apr-17 12:20 200 10 10.0
2014-Apr-17 11:50 200 10 11.0
2014-Apr-17 11:20 210 10 2.710.0
2014-Apr-17 10:50 210 10 10.0
2014-Apr-17 10:20 190 10 9.0
2014-Apr-17 09:50 210 8 9.0
2014-Apr-17 09:20 210 9 8.0
2014-Apr-17 08:50 200 8 7.0
2014-Apr-17 08:20 200 8 6.0
2014-Apr-17 07:50 190 8 6.0
2014-Apr-17 07:20 210 8 5.0
2014-Apr-17 06:50 200 6 5.0
2014-Apr-17 06:20 190 5 4.0
2014-Apr-17 05:50 180 6 3.0
2014-Apr-17 05:20 180 4 2.0
2014-Apr-17 04:50 190 3 2.0
2014-Apr-17 04:20 210 3 2.0
2014-Apr-17 03:50 190 3 1.0
2014-Apr-17 03:20 190 1 1.0
2014-Apr-17 02:50 160 1 -0.0
2014-Apr-17 02:20 -0.0
2014-Apr-17 01:50 1.0
2014-Apr-17 01:20 1.0
2014-Apr-17 00:50 210 1 2.0
2014-Apr-17 00:20 220 1 2.0
2014-Apr-16 23:50 220 2 2.0
2014-Apr-16 23:20 220 2 2.0
2014-Apr-16 22:50 230 2 2.0
2014-Apr-16 22:20 240 2 1.0
2014-Apr-16 21:50 220 1 -2.0
2014-Apr-16 21:20 220 1 -1.0
2014-Apr-16 20:50 220 1 -1.0
2014-Apr-16 20:20 210 1 -1.0
2014-Apr-16 19:50 210 1 -1.0
2014-Apr-16 19:20 200 1 -0.0
2014-Apr-16 18:50 -0.0
2014-Apr-16 18:20 1.0